Change the Weather History Date:

Thursday, September 19, 2013

  Actual Average (KCFV) Record (KCFV)
Temperature  
Mean Temperature 78 °F -  
Max Temperature 89 °F 78 °F 97 °F (2000)
Min Temperature 68 °F 56 °F 44 °F (2003)
Cooling Degree Days 14    
Growing Degree Days 28 (Base 50)    
Moisture  
Dew Point 67 °F    
Average Humidity 73    
Maximum Humidity 88    
Minimum Humidity 49    
Precipitation  
Precipitation 0.00 in - - ()
Sea Level Pressure  
Sea Level Pressure 29.91 in    
Wind  
Wind Speed 11 mph (SSW)    
Max Wind Speed 28 mph    
Max Gust Speed 37 mph    
Visibility 10 miles    
Events Rain , Thunderstorm    
Averages and records for this station are not official NWS values.
T = Trace of Precipitation, MM = Missing Value Source: NWS Daily Summary

Daily Weather History Graph

Daily Weather History Graph

Search for Another Location

Airport or City:

Trip Planner

Search our weather history database for the weather conditions in past years. The results will help you decide how hot, cold, wet, or windy it might be!

Date:

Astronomy

Sep. 19, 2013 Rise Set
Actual Time 7:08 AM CDT 7:24 PM CDT
Civil Twilight 6:42 AM CDT 7:50 PM CDT
Nautical Twilight 6:12 AM CDT 8:20 PM CDT
Astronomical Twilight 5:41 AM CDT 8:51 PM CDT
Moon 7:25 PM CDT (9/19) 7:17 AM CDT (9/19)
Length of Visible Light 13h 07m
Length of Day
12h 15m
Full, 100% of the Moon is Illuminated
Sep 19
Full
Sep 26
Last Quarter
Oct 4
New
Oct 11
First Quarter
Oct 18
Full

Hourly Weather History & Observations

Time (CDT) Temp. Heat Index Dew Point Humidity Pressure Visibility Wind Dir Wind Speed Gust Speed Precip Events Conditions
12:15 AM 75.2 °F - 64.4 °F 69% 29.91 in 10.0 mi South 10.4 mph - N/A   Clear
12:35 AM 73.4 °F - 64.4 °F 73% 29.91 in 10.0 mi South 10.4 mph 16.1 mph N/A   Clear
12:55 AM 73.4 °F - 64.4 °F 73% 29.91 in 10.0 mi South 9.2 mph - N/A   Clear
1:15 AM 73.4 °F - 66.2 °F 78% 29.91 in 10.0 mi South 11.5 mph - N/A   Clear
1:35 AM 73.4 °F - 66.2 °F 78% 29.90 in 10.0 mi South 9.2 mph - N/A   Clear
1:55 AM 71.6 °F - 66.2 °F 83% 29.90 in 10.0 mi South 10.4 mph - N/A   Clear
2:15 AM 73.4 °F - 66.2 °F 78% 29.90 in 10.0 mi South 11.5 mph - N/A   Clear
2:35 AM 71.6 °F - 66.2 °F 83% 29.90 in 10.0 mi South 10.4 mph - N/A   Clear
2:55 AM 71.6 °F - 68.0 °F 88% 29.90 in 10.0 mi South 10.4 mph - N/A   Clear
3:15 AM 71.6 °F - 68.0 °F 88% 29.90 in 10.0 mi South 9.2 mph - N/A   Clear
3:35 AM 71.6 °F - 68.0 °F 88% 29.90 in 10.0 mi South 9.2 mph - N/A   Clear
3:55 AM 73.4 °F - 68.0 °F 83% 29.90 in 10.0 mi South 11.5 mph - N/A   Clear
4:15 AM 73.4 °F - 68.0 °F 83% 29.90 in 10.0 mi South 10.4 mph - N/A   Clear
4:35 AM 73.4 °F - 68.0 °F 83% 29.90 in 10.0 mi South 8.1 mph - N/A   Clear
4:55 AM 71.6 °F - 68.0 °F 88% 29.90 in 10.0 mi South 9.2 mph - N/A   Clear
5:15 AM 73.4 °F - 68.0 °F 83% 29.90 in 10.0 mi South 8.1 mph - N/A   Clear
5:35 AM 71.6 °F - 68.0 °F 88% 29.90 in 10.0 mi South 8.1 mph - N/A   Clear
5:55 AM 71.6 °F - 68.0 °F 88% 29.90 in 10.0 mi South 8.1 mph - N/A   Clear
6:15 AM 71.6 °F - 68.0 °F 88% 29.91 in 10.0 mi South 8.1 mph - N/A   Clear
6:35 AM 71.6 °F - 68.0 °F 88% 29.91 in 10.0 mi South 10.4 mph - N/A   Clear
6:55 AM 71.6 °F - 68.0 °F 88% 29.91 in 10.0 mi South 10.4 mph - N/A   Clear
7:15 AM 71.6 °F - 68.0 °F 88% 29.92 in 10.0 mi South 10.4 mph - N/A   Clear
7:35 AM 71.6 °F - 68.0 °F 88% 29.92 in 10.0 mi South 10.4 mph - N/A   Clear
7:55 AM 73.4 °F - 68.0 °F 83% 29.92 in 10.0 mi South 10.4 mph - N/A   Clear
8:15 AM 73.4 °F - 68.0 °F 83% 29.92 in 10.0 mi South 10.4 mph 16.1 mph N/A   Clear
8:35 AM 75.2 °F - 68.0 °F 78% 29.92 in 10.0 mi South 12.7 mph 17.3 mph N/A   Clear
8:55 AM 77.0 °F - 68.0 °F 74% 29.92 in 10.0 mi South 13.8 mph - N/A   Clear
9:15 AM 77.0 °F - 68.0 °F 74% 29.92 in 10.0 mi South 16.1 mph 20.7 mph N/A   Clear
9:35 AM 78.8 °F - 68.0 °F 69% 29.93 in 10.0 mi South 15.0 mph 21.9 mph N/A   Clear
9:55 AM 80.6 °F 83.2 °F 68.0 °F 65% 29.93 in 10.0 mi South 15.0 mph 21.9 mph N/A   Clear
10:15 AM 80.6 °F 83.2 °F 68.0 °F 65% 29.94 in 10.0 mi SSW 17.3 mph 20.7 mph N/A   Clear
10:35 AM 80.6 °F 83.2 °F 68.0 °F 65% 29.94 in 10.0 mi SSW 16.1 mph 20.7 mph N/A   Clear
10:55 AM 82.4 °F 85.4 °F 68.0 °F 62% 29.94 in 10.0 mi South 12.7 mph 21.9 mph N/A   Clear
11:15 AM 82.4 °F 85.4 °F 68.0 °F 62% 29.95 in 10.0 mi SSW 13.8 mph - N/A   Clear
11:35 AM 84.2 °F 87.3 °F 68.0 °F 58% 29.94 in 10.0 mi South 13.8 mph 19.6 mph N/A   Clear
11:55 AM 86.0 °F 89.4 °F 68.0 °F 55% 29.94 in 10.0 mi South 13.8 mph - N/A   Clear
12:15 PM 86.0 °F 90.4 °F 69.8 °F 58% 29.93 in 10.0 mi South 16.1 mph 19.6 mph N/A   Clear
12:35 PM 87.8 °F 91.4 °F 68.0 °F 52% 29.92 in 10.0 mi SSW 16.1 mph 19.6 mph N/A   Clear
12:55 PM 87.8 °F 92.6 °F 69.8 °F 55% 29.92 in 10.0 mi SSW 16.1 mph 23.0 mph N/A   Clear
1:15 PM 87.8 °F 91.4 °F 68.0 °F 52% 29.92 in 10.0 mi SSW 16.1 mph 23.0 mph N/A   Clear
1:35 PM 89.6 °F 93.4 °F 68.0 °F 49% 29.90 in 10.0 mi SSW 15.0 mph - N/A   Clear
1:55 PM 89.6 °F 93.4 °F 68.0 °F 49% 29.89 in 10.0 mi South 15.0 mph 23.0 mph N/A   Clear
2:15 PM 89.6 °F 93.4 °F 68.0 °F 49% 29.88 in 10.0 mi South 19.6 mph - N/A   Scattered Clouds
2:35 PM 89.6 °F 93.4 °F 68.0 °F 49% 29.88 in 10.0 mi SSW 17.3 mph - N/A   Scattered Clouds
2:55 PM 87.8 °F 91.4 °F 68.0 °F 52% 29.87 in 10.0 mi South 16.1 mph 23.0 mph N/A   Clear
3:15 PM 89.6 °F 93.4 °F 68.0 °F 49% 29.87 in 10.0 mi South 15.0 mph - N/A   Scattered Clouds
3:35 PM 84.2 °F 86.6 °F 66.2 °F 55% 29.89 in 10.0 mi South 27.6 mph 36.8 mph N/A   Scattered Clouds
3:55 PM 80.6 °F 82.7 °F 66.2 °F 61% 29.89 in 10.0 mi South 20.7 mph 34.5 mph N/A Thunderstorm Scattered Clouds
4:15 PM 77.0 °F - 68.0 °F 74% 29.88 in 10.0 mi South 18.4 mph - N/A   Clear
4:35 PM 77.0 °F - 66.2 °F 69% 29.87 in 10.0 mi South 15.0 mph - N/A   Scattered Clouds
4:55 PM 77.0 °F - 66.2 °F 69% 29.87 in 10.0 mi SSW 16.1 mph 23.0 mph N/A   Scattered Clouds
5:15 PM 77.0 °F - 66.2 °F 69% 29.87 in 10.0 mi SSW 11.5 mph - N/A   Scattered Clouds
5:35 PM 78.8 °F - 66.2 °F 65% 29.87 in 10.0 mi South 8.1 mph - N/A   Overcast
5:55 PM 77.0 °F - 66.2 °F 69% 29.86 in 10.0 mi SSW 5.8 mph - N/A   Mostly Cloudy
6:15 PM 77.0 °F - 64.4 °F 65% 29.85 in 10.0 mi SSW 6.9 mph - N/A   Scattered Clouds
6:35 PM 77.0 °F - 64.4 °F 65% 29.85 in 10.0 mi SSW 8.1 mph - N/A   Clear
6:55 PM 75.2 °F - 66.2 °F 73% 29.84 in 10.0 mi SW 10.4 mph - N/A   Clear
7:15 PM 75.2 °F - 64.4 °F 69% 29.86 in 10.0 mi WSW 10.4 mph - N/A   Clear
7:35 PM 75.2 °F - 66.2 °F 73% 29.87 in 10.0 mi WSW 10.4 mph - N/A   Clear
7:55 PM 77.0 °F - 68.0 °F 74% 29.89 in 10.0 mi WSW 11.5 mph - N/A   Clear
8:15 PM 77.0 °F - 68.0 °F 74% 29.92 in 10.0 mi West 13.8 mph 17.3 mph N/A   Mostly Cloudy
8:35 PM 77.0 °F - 66.2 °F 69% 29.93 in 10.0 mi WNW 17.3 mph 21.9 mph N/A   Overcast
8:55 PM 73.4 °F - 62.6 °F 69% 29.95 in 10.0 mi West 18.4 mph 23.0 mph N/A Rain Light Rain
9:15 PM 69.8 °F - 62.6 °F 78% 29.96 in 10.0 mi WNW 13.8 mph 27.6 mph N/A Rain Rain
9:35 PM 68.0 °F - 62.6 °F 83% 29.95 in 7.0 mi WNW 11.5 mph - N/A Rain Light Rain
9:55 PM 68.0 °F - 62.6 °F 83% 29.94 in 5.0 mi West 6.9 mph - N/A Rain Light Rain
10:15 PM 68.0 °F - 64.4 °F 88% 29.92 in 10.0 mi NW 5.8 mph - N/A Rain Rain
10:35 PM 68.0 °F - 64.4 °F 88% 29.93 in 10.0 mi WSW 6.9 mph - N/A Rain Light Rain
10:55 PM 68.0 °F - 64.4 °F 88% 29.95 in 10.0 mi West 8.1 mph - N/A   Scattered Clouds
11:15 PM 68.0 °F - 64.4 °F 88% 29.93 in 10.0 mi Calm Calm - N/A   Scattered Clouds
11:35 PM 68.0 °F - 64.4 °F 88% 29.92 in 10.0 mi Calm Calm - N/A   Mostly Cloudy
11:55 PM 68.0 °F - 64.4 °F 88% 29.94 in 10.0 mi North 5.8 mph - N/A   Mostly Cloudy